STARLINK-3912, 52502

Orbit data source: Space-Track

STARLINK-3912, 52502 is a payload satellite owned by SpaceX/Seattle (US) in LEO that was launched on Fri, 06 May 2022 UTC via an FALCON 9 launch vehicle from the Air Force Eastern Test Range (AFETR). Payload-class satellites include a variety of spacecraft equipped with specific instruments for various scientific and technological missions. These include communications satellites like Starlink; space stations such as the ISS; scientific satellites like the Hubble; Earth observation satellites from companies like Planet Labs, Umbra, and HawkEye 360; GPS; miniature CubeSats for education and research; and military/defense satellites.

Loading next visibility...
Identifier
52502, 2022-049BD
Orbit
LEO
Country
Flag of USUS
Related business
Manufacturer
SpaceX/Seattle
Mission
Operational Commercial Communications
Bus & Motor
STARLINK, Unknown motor
Mass
297 kg wet, ~220 kg dry
Launch date (UTC)
2022-05-06 (4 years ago)
Launch vehicle
FALCON 9
Launch site
Air Force Eastern Test Range (AFETR)
Object type
Payload
Rocket body
Debris
Shape & HBR
Box + 1 Pan, 10.1 m
Radar Cross Section
13.562 m², Large (>1 m²)

Expand to show TLE details & history
Last TLE update: 2 days ago

TLE from 2 days ago
0 STARLINK-3912
1 52502U 22049BD  26171.32424483 -.00001390  00000-0 -69278-4 0  9999
2 52502  53.1611 298.2866 0001452  94.3919 265.7238 15.08837096228025
Epoch: 2026-06-20T07:46Z
TLE epoch observation values (Epoch: 2026-06-20T07:46:54.753Z)
Latitude
-0.00004°
Longitude
-86.98207°
Altitude
540.719 km
Speed
7.593 km/s
True Right ascension
19h 53m 08s
True Declination
0° 00' 00"
Sunlit
Object was in full shadow at epoch
Visualization orbit readout
Latitude
Unknown
Longitude
Unknown
Altitude
Unknown
Speed
Unknown
Apparent Right ascension
Unknown
Apparent Declination
Unknown
Sunlit
N/A
Visualization observer readout
Local Sidereal Time
21:40:07
Azimuth
Unknown
Elevation
Unknown
Doppler factor
Unknown
Orbital elements
Apogee altitude
541.011 km
Perigee altitude
539.002 km
Semi-major axis
6,918.143 km
Eccentricity
0.00015
Inclination
53.1611°
RAAN
298.2866°
Arg. of periapsis
94.3919°
True anomaly
265.70721°
Mean anomaly
265.7238°
Eccentric anomaly
265.7155°
Mean motion
3.77189 °/min
Orbital period
95.44 mins
BSTAR
-0.000069278
Loading maneuver chart data...
Computing Atmospheric mass density...
Loading historical data...
Loading historical data...
Loading historical data...
Loading historical data...
Loading historical data...
Loading historical data...
Loading historical data...

Documentation

Showing up to 5 results
|